04-12-2022, 00:00:02,     24,    0.0,    1.6,   0.00,   0.00, 1014.0,   80.7, -999.0
04-12-2022, 00:00:11,     25,    0.0,    1.6,   0.00,   0.00, 1014.0,   80.8, -999.0
04-12-2022, 00:00:21,     25,    0.0,    1.7,   0.00,   0.00, 1014.0,   80.8, -999.0
04-12-2022, 00:00:32,     25,    0.0,    1.6,   0.00,   0.00, 1014.0,   80.8, -999.0
04-12-2022, 00:00:42,     25,    0.0,    1.6,   0.00,   0.00, 1014.0,   80.8, -999.0
04-12-2022, 00:00:51,     24,    0.0,    1.6,   0.00,   0.00, 1014.0,   80.8, -999.0
04-12-2022, 00:01:02,     24,    0.0,    1.6,   0.00,   0.00, 1014.0,   80.9, -999.0
04-12-2022, 00:01:12,     25,    0.0,    1.6,   0.00,   0.00, 1014.0,   80.8, -999.0
04-12-2022, 00:01:21,     24,    0.0,    1.6,   0.00,   0.00, 1014.0,   80.9, -999.0
04-12-2022, 00:01:31,     25,    0.0,    1.6,   0.00,   0.00, 1014.0,   80.9, -999.0
04-12-2022, 00:01:42,     25,    0.0,    1.6,   0.00,   0.00, 1014.0,   80.9, -999.0
04-12-2022, 00:01:52,     25,    0.0,    1.7,   0.00,   0.00, 1014.0,   80.8, -999.0
04-12-2022, 00:02:01,     24,    0.0,    1.7,   0.00,   0.00, 1014.0,   80.7, -999.0
04-12-2022, 00:02:11,     25,    0.0,    1.7,   0.00,   0.00, 1014.0,   80.8, -999.0
04-12-2022, 00:02:22,     24,    0.0,    1.6,   0.00,   0.00, 1014.0,   80.9, -999.0
04-12-2022, 00:02:31,     24,    0.0,    1.5,   0.00,   0.00, 1014.0,   80.9, -999.0
04-12-2022, 00:02:41,     25,    0.0,    1.6,   0.00,   0.00, 1014.0,   80.9, -999.0
04-12-2022, 00:02:51,     24,    0.0,    1.6,   0.00,   0.00, 1014.0,   80.8, -999.0
04-12-2022, 00:03:01,     26,    0.2,    1.7,   0.00,   0.00, 1014.0,   81.1, -999.0
04-12-2022, 00:03:11,     26,    0.0,    1.6,   0.00,   0.00, 1013.9,   80.9, -999.0
04-12-2022, 00:03:21,     27,    0.0,    1.6,   0.00,   0.00, 1013.9,   80.9, -999.0
04-12-2022, 00:03:31,     26,    0.0,    1.7,   0.00,   0.00, 1014.0,   80.9, -999.0
04-12-2022, 00:03:41,     27,    0.0,    1.7,   0.00,   0.00, 1013.9,   80.9, -999.0
04-12-2022, 00:03:51,     27,    0.2,    1.7,   0.00,   0.00, 1014.0,   81.0, -999.0
04-12-2022, 00:04:01,     27,    0.0,    1.8,   0.00,   0.00, 1014.0,   80.9, -999.0
04-12-2022, 00:04:11,     34,    0.6,    1.7,   0.00,   0.00, 1014.0,   81.1, -999.0
04-12-2022, 00:04:21,     33,    0.3,    1.8,   0.00,   0.00, 1014.1,   81.1, -999.0
04-12-2022, 00:04:31,     44,    1.0,    1.7,   0.00,   0.00, 1014.0,   81.1, -999.0
04-12-2022, 00:04:41,     43,    0.5,    1.7,   0.00,   0.00, 1014.1,   80.9, -999.0
04-12-2022, 00:04:51,     42,    0.1,    1.6,   0.00,   0.00, 1014.0,   80.6, -999.0
04-12-2022, 00:05:01,     42,    0.0,    1.5,   0.00,   0.00, 1014.0,   80.5, -999.0
04-12-2022, 00:05:11,     42,    0.0,    1.6,   0.00,   0.00, 1013.9,   80.5, -999.0
04-12-2022, 00:05:21,     42,    0.0,    1.5,   0.00,   0.00, 1014.0,   80.6, -999.0
04-12-2022, 00:05:31,     42,    0.0,    1.6,   0.00,   0.00, 1013.9,   80.7, -999.0
04-12-2022, 00:05:41,     43,    0.0,    1.6,   0.00,   0.00, 1013.9,   80.7, -999.0
04-12-2022, 00:05:51,     42,    0.0,    1.6,   0.00,   0.00, 1013.9,   80.6, -999.0
04-12-2022, 00:06:01,     42,    0.3,    1.7,   0.00,   0.00, 1014.0,   81.0, -999.0
04-12-2022, 00:06:11,     45,    0.3,    1.7,   0.00,   0.00, 1014.0,   81.0, -999.0
04-12-2022, 00:06:21,     27,    1.1,    1.7,   0.00,   0.00, 1014.1,   81.2, -999.0
04-12-2022, 00:06:31,     33,    1.4,    1.7,   0.00,   0.00, 1014.1,   81.2, -999.0
04-12-2022, 00:06:41,     32,    0.1,    1.6,   0.00,   0.00, 1014.0,   80.7, -999.0
04-12-2022, 00:06:51,     23,    0.3,    1.6,   0.00,   0.00, 1014.0,   80.9, -999.0
04-12-2022, 00:07:01,     35,    2.4,    1.7,   0.00,   0.00, 1014.1,   81.1, -999.0
04-12-2022, 00:07:11,     46,    3.3,    1.7,   0.00,   0.00, 1014.1,   80.9, -999.0
04-12-2022, 00:07:20,     52,    2.1,    1.6,   0.00,   0.00, 1014.1,   80.8, -999.0
04-12-2022, 00:07:31,     33,    1.5,    1.6,   0.00,   0.00, 1014.0,   80.7, -999.0
04-12-2022, 00:07:41,     33,    0.3,    1.6,   0.00,   0.00, 1014.0,   80.8, -999.0
04-12-2022, 00:07:51,     33,    0.0,    1.5,   0.00,   0.00, 1013.9,   80.6, -999.0
04-12-2022, 00:08:00,     33,    0.0,    1.5,   0.00,   0.00, 1014.0,   80.7, -999.0
04-12-2022, 00:08:11,     33,    0.1,    1.6,   0.00,   0.00, 1014.0,   80.9, -999.0
04-12-2022, 00:08:21,     33,    0.1,    1.6,   0.00,   0.00, 1014.0,   81.0, -999.0
04-12-2022, 00:08:30,     33,    0.2,    1.6,   0.00,   0.00, 1014.0,   81.1, -999.0
04-12-2022, 00:08:40,     33,    0.0,    1.6,   0.00,   0.00, 1013.9,   80.9, -999.0
04-12-2022, 00:08:51,     32,    0.0,    1.6,   0.00,   0.00, 1013.9,   80.9, -999.0
04-12-2022, 00:09:01,     33,    0.0,    1.6,   0.00,   0.00, 1013.9,   81.0, -999.0
04-12-2022, 00:09:10,     33,    0.0,    1.7,   0.00,   0.00, 1013.9,   80.9, -999.0
04-12-2022, 00:09:20,     33,    0.0,    1.7,   0.00,   0.00, 1014.0,   80.9, -999.0
04-12-2022, 00:09:31,     33,    0.0,    1.6,   0.00,   0.00, 1013.9,   80.9, -999.0
04-12-2022, 00:09:40,     33,    0.0,    1.7,   0.00,   0.00, 1014.0,   81.0, -999.0
04-12-2022, 00:09:50,     33,    0.0,    1.7,   0.00,   0.00, 1013.9,   80.9, -999.0
04-12-2022, 00:10:00,     33,    0.0,    1.7,   0.00,   0.00, 1014.0,   80.9, -999.0
04-12-2022, 00:10:10,     47,    0.1,    1.6,   0.00,   0.00, 1014.0,   81.1, -999.0
04-12-2022, 00:10:20,    333,    0.8,    1.6,   0.00,   0.00, 1014.0,   81.2, -999.0
04-12-2022, 00:10:30,     62,    0.5,    1.7,   0.00,   0.00, 1014.1,   81.1, -999.0
04-12-2022, 00:10:41,     62,    0.1,    1.7,   0.00,   0.00, 1014.0,   80.8, -999.0
04-12-2022, 00:10:50,     61,    0.1,    1.7,   0.00,   0.00, 1014.0,   80.8, -999.0
04-12-2022, 00:11:00,    358,    0.8,    1.8,   0.00,   0.00, 1014.0,   81.1, -999.0
04-12-2022, 00:11:10,      7,    0.1,    1.7,   0.00,   0.00, 1014.0,   80.9, -999.0
04-12-2022, 00:11:21,      9,    0.3,    1.7,   0.00,   0.00, 1014.0,   80.9, -999.0
04-12-2022, 00:11:30,     14,    0.3,    1.7,   0.00,   0.00, 1014.0,   80.9, -999.0
04-12-2022, 00:11:40,      1,    0.4,    1.7,   0.00,   0.00, 1014.1,   81.0, -999.0
04-12-2022, 00:11:50,      0,    0.0,    1.6,   0.00,   0.00, 1013.9,   80.7, -999.0
04-12-2022, 00:12:00,     14,    0.7,    1.6,   0.00,   0.00, 1014.0,   81.0, -999.0
04-12-2022, 00:12:10,     10,    0.2,    1.6,   0.00,   0.00, 1014.0,   80.8, -999.0
04-12-2022, 00:12:20,     11,    0.2,    1.6,   0.00,   0.00, 1014.0,   80.7, -999.0
04-12-2022, 00:12:30,     11,    0.2,    1.7,   0.00,   0.00, 1014.0,   80.9, -999.0
04-12-2022, 00:12:40,     10,    0.0,    1.5,   0.00,   0.00, 1014.0,   80.7, -999.0
04-12-2022, 00:12:50,     10,    0.0,    1.6,   0.00,   0.00, 1013.9,   80.7, -999.0
04-12-2022, 00:13:00,     10,    0.0,    1.6,   0.00,   0.00, 1013.9,   80.7, -999.0
04-12-2022, 00:13:10,     14,    0.3,    1.7,   0.00,   0.00, 1014.0,   80.9, -999.0
04-12-2022, 00:13:20,     13,    0.3,    1.7,   0.00,   0.00, 1014.0,   81.0, -999.0
04-12-2022, 00:13:30,     19,    0.4,    1.6,   0.00,   0.00, 1014.0,   81.0, -999.0
04-12-2022, 00:13:40,     21,    0.3,    1.7,   0.00,   0.00, 1014.0,   81.0, -999.0
04-12-2022, 00:13:50,     21,    0.2,    1.7,   0.00,   0.00, 1014.0,   81.1, -999.0
04-12-2022, 00:14:00,     21,    0.0,    1.7,   0.00,   0.00, 1013.9,   80.8, -999.0
04-12-2022, 00:14:10,     26,    1.2,    1.7,   0.00,   0.00, 1014.0,   81.1, -999.0
04-12-2022, 00:14:20,      3,    2.8,    1.7,   0.00,   0.00, 1014.1,   81.2, -999.0
04-12-2022, 00:14:30,      2,    1.7,    1.7,   0.00,   0.00, 1014.1,   80.9, -999.0
04-12-2022, 00:14:40,     28,    0.7,    1.7,   0.00,   0.00, 1014.1,   81.0, -999.0
04-12-2022, 00:14:50,      0,    1.8,    1.6,   0.00,   0.00, 1014.1,   81.0, -999.0
04-12-2022, 00:15:00,     15,    0.7,    1.7,   0.00,   0.00, 1014.1,   81.0, -999.0
04-12-2022, 00:15:10,      0,    0.2,    1.6,   0.00,   0.00, 1014.0,   80.8, -999.0
04-12-2022, 00:15:19,      0,    0.4,    1.7,   0.00,   0.00, 1014.0,   81.1, -999.0
04-12-2022, 00:15:30,    358,    0.9,    1.7,   0.00,   0.00, 1014.0,   81.2, -999.0
04-12-2022, 00:15:40,     20,    0.5,    1.8,   0.00,   0.00, 1014.1,   81.3, -999.0
04-12-2022, 00:15:50,     45,    1.9,    1.6,   0.00,   0.00, 1014.1,   81.3, -999.0
04-12-2022, 00:15:59,     45,    0.1,    1.7,   0.00,   0.00, 1014.0,   80.9, -999.0
04-12-2022, 00:16:10,     46,    0.0,    1.7,   0.00,   0.00, 1013.9,   80.9, -999.0
04-12-2022, 00:16:20,     46,    0.0,    1.7,   0.00,   0.00, 1013.9,   80.9, -999.0
04-12-2022, 00:16:29,     45,    0.0,    1.7,   0.00,   0.00, 1013.9,   80.9, -999.0
04-12-2022, 00:16:40,     45,    0.0,    1.7,   0.00,   0.00, 1013.9,   80.9, -999.0
04-12-2022, 00:16:50,     45,    0.0,    1.7,   0.00,   0.00, 1013.9,   80.8, -999.0
04-12-2022, 00:17:00,     45,    0.0,    1.7,   0.00,   0.00, 1013.9,   80.9, -999.0
04-12-2022, 00:17:10,     45,    0.0,    1.7,   0.00,   0.00, 1013.9,   80.9, -999.0
04-12-2022, 00:17:20,     46,    0.0,    1.7,   0.00,   0.00, 1013.9,   80.9, -999.0
04-12-2022, 00:17:30,     46,    0.0,    1.8,   0.00,   0.00, 1013.9,   81.0, -999.0
04-12-2022, 00:17:39,     46,    0.0,    1.9,   0.00,   0.00, 1013.9,   80.9, -999.0
04-12-2022, 00:17:49,     45,    0.0,    1.9,   0.00,   0.00, 1013.9,   80.9, -999.0
04-12-2022, 00:18:00,     46,    0.0,    1.8,   0.00,   0.00, 1013.9,   80.9, -999.0
04-12-2022, 00:18:09,     46,    0.0,    1.8,   0.00,   0.00, 1013.9,   80.8, -999.0
04-12-2022, 00:18:19,     46,    0.0,    1.8,   0.00,   0.00, 1013.9,   80.7, -999.0
04-12-2022, 00:18:29,     46,    0.0,    1.8,   0.00,   0.00, 1013.9,   80.7, -999.0
04-12-2022, 00:18:40,     46,    0.0,    1.7,   0.00,   0.00, 1013.9,   80.5, -999.0
04-12-2022, 00:18:49,     45,    0.0,    1.8,   0.00,   0.00, 1013.9,   80.5, -999.0
04-12-2022, 00:18:59,     46,    0.0,    1.8,   0.00,   0.00, 1013.9,   80.5, -999.0
04-12-2022, 00:19:09,     46,    0.1,    1.8,   0.00,   0.00, 1014.0,   80.7, -999.0
04-12-2022, 00:19:19,     46,    0.0,    1.7,   0.00,   0.00, 1013.9,   80.5, -999.0
04-12-2022, 00:19:29,      0,    0.2,    1.8,   0.00,   0.00, 1013.9,   80.5, -999.0
04-12-2022, 00:19:39,      0,    0.0,    1.8,   0.00,   0.00, 1013.9,   80.4, -999.0
04-12-2022, 00:19:49,      0,    0.0,    1.7,   0.00,   0.00, 1013.9,   80.3, -999.0
04-12-2022, 00:19:59,      0,    0.0,    1.7,   0.00,   0.00, 1013.9,   80.4, -999.0
04-12-2022, 00:20:09,      0,    0.0,    1.7,   0.00,   0.00, 1013.9,   80.4, -999.0
04-12-2022, 00:20:19,      0,    0.0,    1.7,   0.00,   0.00, 1013.9,   80.5, -999.0
04-12-2022, 00:20:29,      0,    0.0,    1.7,   0.00,   0.00, 1013.9,   80.4, -999.0
04-12-2022, 00:20:39,     24,    0.1,    1.7,   0.00,   0.00, 1013.9,   80.4, -999.0
04-12-2022, 00:20:49,     24,    0.5,    1.7,   0.00,   0.00, 1014.1,   80.8, -999.0
04-12-2022, 00:20:59,     22,    0.0,    1.6,   0.00,   0.00, 1014.0,   80.6, -999.0
04-12-2022, 00:21:09,     22,    0.0,    1.6,   0.00,   0.00, 1013.9,   80.4, -999.0
04-12-2022, 00:21:19,     22,    0.0,    1.6,   0.00,   0.00, 1013.9,   80.4, -999.0
04-12-2022, 00:21:29,     23,    0.0,    1.6,   0.00,   0.00, 1013.9,   80.6, -999.0
04-12-2022, 00:21:39,     23,    0.0,    1.6,   0.00,   0.00, 1013.9,   80.6, -999.0
04-12-2022, 00:21:49,     23,    0.0,    1.5,   0.00,   0.00, 1013.9,   80.5, -999.0
04-12-2022, 00:21:59,     22,    0.0,    1.7,   0.00,   0.00, 1013.9,   80.7, -999.0
04-12-2022, 00:22:09,     22,    0.0,    1.6,   0.00,   0.00, 1013.9,   80.6, -999.0
04-12-2022, 00:22:19,     22,    0.0,    1.6,   0.00,   0.00, 1013.9,   80.8, -999.0
04-12-2022, 00:22:29,     22,    0.0,    1.7,   0.00,   0.00, 1013.9,   80.7, -999.0
04-12-2022, 00:22:39,     22,    0.0,    1.7,   0.00,   0.00, 1013.9,   80.7, -999.0
04-12-2022, 00:22:49,     22,    0.0,    1.7,   0.00,   0.00, 1013.9,   80.8, -999.0
04-12-2022, 00:22:59,     22,    0.0,    1.6,   0.00,   0.00, 1013.9,   80.8, -999.0
04-12-2022, 00:23:09,     22,    0.0,    1.6,   0.00,   0.00, 1013.9,   80.7, -999.0
04-12-2022, 00:23:19,     22,    0.0,    1.7,   0.00,   0.00, 1013.9,   80.8, -999.0
04-12-2022, 00:23:29,     22,    0.0,    1.6,   0.00,   0.00, 1013.9,   80.8, -999.0
04-12-2022, 00:23:38,     22,    0.0,    1.7,   0.00,   0.00, 1013.9,   80.9, -999.0
04-12-2022, 00:23:49,     23,    0.0,    1.6,   0.00,   0.00, 1013.9,   80.9, -999.0
04-12-2022, 00:23:59,     22,    0.0,    1.6,   0.00,   0.00, 1013.9,   80.9, -999.0
04-12-2022, 00:24:08,     22,    0.0,    1.7,   0.00,   0.00, 1013.9,   80.8, -999.0
04-12-2022, 00:24:19,     22,    0.0,    1.7,   0.00,   0.00, 1013.9,   80.8, -999.0
04-12-2022, 00:24:29,     22,    0.0,    1.7,   0.00,   0.00, 1013.9,   80.8, -999.0
04-12-2022, 00:24:39,     22,    0.0,    1.7,   0.00,   0.00, 1013.9,   81.0, -999.0
04-12-2022, 00:24:48,     22,    0.0,    1.7,   0.00,   0.00, 1013.9,   80.9, -999.0
04-12-2022, 00:24:59,     22,    0.0,    1.7,   0.00,   0.00, 1013.9,   80.9, -999.0
04-12-2022, 00:25:09,      0,    0.3,    1.7,   0.00,   0.00, 1014.0,   81.2, -999.0
04-12-2022, 00:25:18,    355,    0.1,    1.7,   0.00,   0.00, 1014.0,   81.1, -999.0
04-12-2022, 00:25:28,    355,    0.0,    1.7,   0.00,   0.00, 1013.9,   80.8, -999.0
04-12-2022, 00:25:39,    355,    0.0,    1.5,   0.00,   0.00, 1013.9,   80.7, -999.0
04-12-2022, 00:25:48,    355,    0.0,    1.6,   0.00,   0.00, 1013.9,   80.8, -999.0
04-12-2022, 00:25:58,    355,    0.0,    1.7,   0.00,   0.00, 1013.9,   80.7, -999.0
04-12-2022, 00:26:08,      0,    0.3,    1.7,   0.00,   0.00, 1014.0,   81.0, -999.0
04-12-2022, 00:26:18,      0,    0.0,    1.7,   0.00,   0.00, 1013.9,   80.7, -999.0
04-12-2022, 00:26:28,      0,    0.1,    1.7,   0.00,   0.00, 1013.9,   80.8, -999.0
04-12-2022, 00:26:38,      0,    0.1,    1.6,   0.00,   0.00, 1013.9,   80.8, -999.0
04-12-2022, 00:26:48,      0,    0.1,    1.7,   0.00,   0.00, 1013.9,   81.0, -999.0
04-12-2022, 00:26:58,      0,    0.0,    1.7,   0.00,   0.00, 1013.9,   80.7, -999.0
04-12-2022, 00:27:08,      0,    0.2,    1.7,   0.00,   0.00, 1013.9,   80.7, -999.0
04-12-2022, 00:27:18,      0,    0.2,    1.7,   0.00,   0.00, 1014.0,   80.8, -999.0
04-12-2022, 00:27:28,      0,    0.0,    1.7,   0.00,   0.00, 1013.9,   80.6, -999.0
04-12-2022, 00:27:38,      0,    0.0,    1.7,   0.00,   0.00, 1013.9,   80.7, -999.0
04-12-2022, 00:27:48,      0,    0.2,    1.8,   0.00,   0.00, 1013.9,   81.0, -999.0
04-12-2022, 00:27:58,     33,    0.6,    1.7,   0.00,   0.00, 1014.0,   81.1, -999.0
04-12-2022, 00:28:08,     32,    0.6,    1.8,   0.00,   0.00, 1014.0,   81.1, -999.0
04-12-2022, 00:28:18,     33,    0.0,    1.7,   0.00,   0.00, 1013.9,   80.9, -999.0
04-12-2022, 00:28:28,     32,    0.0,    1.7,   0.00,   0.00, 1013.9,   80.8, -999.0
04-12-2022, 00:28:38,     32,    0.0,    1.7,   0.00,   0.00, 1013.8,   80.8, -999.0
04-12-2022, 00:28:48,     32,    0.0,    1.7,   0.00,   0.00, 1013.9,   80.9, -999.0
04-12-2022, 00:28:58,     33,    0.1,    1.7,   0.00,   0.00, 1013.9,   81.0, -999.0
04-12-2022, 00:29:08,     33,    0.0,    1.8,   0.00,   0.00, 1013.9,   80.9, -999.0
04-12-2022, 00:29:18,     34,    0.0,    1.8,   0.00,   0.00, 1013.9,   81.0, -999.0
04-12-2022, 00:29:28,      0,    1.5,    1.9,   0.00,   0.00, 1014.0,   81.3, -999.0
04-12-2022, 00:29:38,      9,    1.5,    1.9,   0.00,   0.00, 1014.0,   81.2, -999.0
04-12-2022, 00:29:48,     49,    1.8,    1.8,   0.00,   0.00, 1014.0,   81.1, -999.0
04-12-2022, 00:29:58,      0,    1.9,    1.9,   0.00,   0.00, 1014.0,   81.0, -999.0
04-12-2022, 00:30:08,      0,    0.6,    1.9,   0.00,   0.00, 1014.0,   81.0, -999.0
04-12-2022, 00:30:18,      0,    0.0,    1.8,   0.00,   0.00, 1013.9,   80.5, -999.0
04-12-2022, 00:30:28,      0,    0.0,    1.8,   0.00,   0.00, 1013.8,   80.6, -999.0
04-12-2022, 00:30:38,      0,    0.0,    1.8,   0.00,   0.00, 1013.8,   80.6, -999.0
04-12-2022, 00:30:48,      0,    0.0,    1.9,   0.00,   0.00, 1013.8,   80.6, -999.0
04-12-2022, 00:30:58,     27,    0.7,    1.9,   0.00,   0.00, 1013.9,   81.0, -999.0
04-12-2022, 00:31:08,     18,    2.9,    2.0,   0.00,   0.00, 1014.0,   81.0, -999.0
04-12-2022, 00:31:18,     16,    1.5,    2.0,   0.00,   0.00, 1014.0,   80.9, -999.0
04-12-2022, 00:31:28,     21,    1.0,    2.0,   0.00,   0.00, 1014.0,   80.8, -999.0
04-12-2022, 00:31:38,     22,    0.0,    1.8,   0.00,   0.00, 1013.9,   80.4, -999.0
04-12-2022, 00:31:47,     22,    0.9,    1.8,   0.00,   0.00, 1014.0,   80.5, -999.0
04-12-2022, 00:31:58,     23,    0.5,    1.8,   0.00,   0.00, 1014.0,   80.6, -999.0
04-12-2022, 00:32:08,     23,    0.0,    1.9,   0.00,   0.00, 1013.9,   80.3, -999.0
04-12-2022, 00:32:17,     26,    0.2,    1.8,   0.00,   0.00, 1013.9,   80.3, -999.0
04-12-2022, 00:32:27,     26,    0.7,    1.9,   0.00,   0.00, 1014.0,   80.6, -999.0
04-12-2022, 00:32:38,     26,    0.4,    1.8,   0.00,   0.00, 1014.0,   80.6, -999.0
04-12-2022, 00:32:48,     25,    0.2,    1.9,   0.00,   0.00, 1014.0,   80.4, -999.0
04-12-2022, 00:32:57,     26,    0.0,    1.9,   0.00,   0.00, 1013.8,   80.2, -999.0
04-12-2022, 00:33:08,     26,    0.0,    1.9,   0.00,   0.00, 1013.8,   80.2, -999.0
04-12-2022, 00:33:18,     25,    0.0,    1.8,   0.00,   0.00, 1013.8,   80.3, -999.0
04-12-2022, 00:33:27,     26,    0.0,    1.9,   0.00,   0.00, 1013.8,   80.4, -999.0
04-12-2022, 00:33:37,     25,    0.0,    1.9,   0.00,   0.00, 1013.9,   80.3, -999.0
04-12-2022, 00:33:48,     26,    0.0,    1.8,   0.00,   0.00, 1013.8,   80.2, -999.0
04-12-2022, 00:33:57,     26,    0.0,    2.0,   0.00,   0.00, 1013.9,   80.2, -999.0
04-12-2022, 00:34:07,     25,    0.0,    1.9,   0.00,   0.00, 1013.9,   80.2, -999.0
04-12-2022, 00:34:17,     43,    0.6,    2.0,   0.00,   0.00, 1014.0,   80.5, -999.0
04-12-2022, 00:34:28,     40,    2.3,    1.9,   0.00,   0.00, 1014.0,   80.5, -999.0
04-12-2022, 00:34:37,     32,    2.1,    1.9,   0.00,   0.00, 1014.0,   80.3, -999.0
04-12-2022, 00:34:47,     41,    1.4,    1.9,   0.00,   0.00, 1014.0,   80.2, -999.0
04-12-2022, 00:34:57,     45,    0.5,    1.8,   0.00,   0.00, 1013.9,   80.1, -999.0
04-12-2022, 00:35:07,     45,    0.0,    1.8,   0.00,   0.00, 1013.9,   80.1, -999.0
04-12-2022, 00:35:17,     45,    0.0,    1.7,   0.00,   0.00, 1013.9,   80.1, -999.0
04-12-2022, 00:35:27,     45,    0.0,    1.8,   0.00,   0.00, 1013.8,   80.2, -999.0
04-12-2022, 00:35:37,     45,    0.9,    1.9,   0.00,   0.00, 1014.0,   80.6, -999.0
04-12-2022, 00:35:47,     41,    1.2,    1.9,   0.00,   0.00, 1014.0,   80.6, -999.0
04-12-2022, 00:35:57,     41,    0.2,    1.7,   0.00,   0.00, 1013.9,   80.5, -999.0
04-12-2022, 00:36:07,     41,    0.4,    1.9,   0.00,   0.00, 1014.0,   80.5, -999.0
04-12-2022, 00:36:17,     42,    0.3,    2.0,   0.00,   0.00, 1013.9,   80.6, -999.0
04-12-2022, 00:36:27,     41,    0.3,    1.9,   0.00,   0.00, 1013.9,   80.5, -999.0
04-12-2022, 00:36:37,     41,    0.0,    1.8,   0.00,   0.00, 1013.8,   80.3, -999.0
04-12-2022, 00:36:47,     41,    0.1,    1.8,   0.00,   0.00, 1013.8,   80.4, -999.0
04-12-2022, 00:36:57,     41,    0.3,    1.8,   0.00,   0.00, 1013.9,   80.3, -999.0
04-12-2022, 00:37:07,     41,    0.5,    1.8,   0.00,   0.00, 1013.9,   80.4, -999.0
04-12-2022, 00:37:17,     41,    0.3,    1.8,   0.00,   0.00, 1013.9,   80.3, -999.0
04-12-2022, 00:37:27,     47,    1.0,    1.9,   0.00,   0.00, 1013.9,   80.5, -999.0
04-12-2022, 00:37:37,     48,    1.4,    1.9,   0.00,   0.00, 1013.9,   80.5, -999.0
04-12-2022, 00:37:47,     48,    0.3,    1.8,   0.00,   0.00, 1013.8,   80.3, -999.0
04-12-2022, 00:37:57,     46,    0.3,    1.8,   0.00,   0.00, 1013.8,   80.3, -999.0
04-12-2022, 00:38:07,     47,    0.0,    1.8,   0.00,   0.00, 1013.8,   80.2, -999.0
04-12-2022, 00:38:17,     46,    0.0,    1.8,   0.00,   0.00, 1013.8,   80.4, -999.0
04-12-2022, 00:38:27,     47,    0.0,    1.8,   0.00,   0.00, 1013.8,   80.3, -999.0
04-12-2022, 00:38:37,     47,    0.0,    1.8,   0.00,   0.00, 1013.8,   80.4, -999.0
04-12-2022, 00:38:47,     47,    0.0,    1.9,   0.00,   0.00, 1013.8,   80.4, -999.0
04-12-2022, 00:38:57,     47,    0.0,    1.8,   0.00,   0.00, 1013.8,   80.4, -999.0
04-12-2022, 00:39:07,     46,    0.0,    1.8,   0.00,   0.00, 1013.7,   80.4, -999.0
04-12-2022, 00:39:17,     47,    0.0,    1.8,   0.00,   0.00, 1013.8,   80.5, -999.0
04-12-2022, 00:39:27,     59,    1.2,    2.0,   0.00,   0.00, 1013.9,   80.9, -999.0
04-12-2022, 00:39:37,     26,    0.5,    1.9,   0.00,   0.00, 1013.9,   80.8, -999.0
04-12-2022, 00:39:47,     25,    0.0,    1.7,   0.00,   0.00, 1013.8,   80.5, -999.0
04-12-2022, 00:39:56,     26,    0.1,    1.8,   0.00,   0.00, 1013.8,   80.5, -999.0
04-12-2022, 00:40:07,     25,    0.4,    1.9,   0.00,   0.00, 1013.9,   80.6, -999.0
04-12-2022, 00:40:17,     25,    0.1,    1.8,   0.00,   0.00, 1013.8,   80.5, -999.0
04-12-2022, 00:40:27,     25,    0.1,    1.8,   0.00,   0.00, 1013.8,   80.6, -999.0
04-12-2022, 00:40:36,     48,    1.2,    1.8,   0.00,   0.00, 1013.9,   80.6, -999.0
04-12-2022, 00:40:47,     26,    1.5,    1.9,   0.00,   0.00, 1013.9,   80.7, -999.0
04-12-2022, 00:40:57,     27,    0.4,    1.9,   0.00,   0.00, 1013.8,   80.5, -999.0
04-12-2022, 00:41:06,     34,    0.7,    1.7,   0.00,   0.00, 1013.9,   80.7, -999.0
04-12-2022, 00:41:16,     34,    0.2,    1.8,   0.00,   0.00, 1013.8,   80.6, -999.0
04-12-2022, 00:41:27,     34,    0.1,    1.8,   0.00,   0.00, 1013.8,   80.6, -999.0
04-12-2022, 00:41:36,     34,    0.2,    1.8,   0.00,   0.00, 1013.8,   80.6, -999.0
04-12-2022, 00:41:46,     18,    0.4,    1.7,   0.00,   0.00, 1013.8,   80.7, -999.0
04-12-2022, 00:41:56,     18,    0.2,    1.9,   0.00,   0.00, 1013.8,   80.7, -999.0
04-12-2022, 00:42:07,     18,    0.0,    1.8,   0.00,   0.00, 1013.7,   80.4, -999.0
04-12-2022, 00:42:16,     26,    0.5,    1.8,   0.00,   0.00, 1013.8,   80.7, -999.0
04-12-2022, 00:42:26,     26,    0.1,    1.8,   0.00,   0.00, 1013.8,   80.6, -999.0
04-12-2022, 00:42:37,     27,    0.0,    1.8,   0.00,   0.00, 1013.7,   80.3, -999.0
04-12-2022, 00:42:46,     25,    0.2,    1.8,   0.00,   0.00, 1013.8,   80.6, -999.0
04-12-2022, 00:42:56,     26,    0.0,    1.8,   0.00,   0.00, 1013.7,   80.3, -999.0
04-12-2022, 00:43:06,     26,    0.3,    1.8,   0.00,   0.00, 1013.8,   80.7, -999.0
04-12-2022, 00:43:16,     26,    0.0,    1.8,   0.00,   0.00, 1013.7,   80.4, -999.0
04-12-2022, 00:43:26,     26,    0.0,    1.9,   0.00,   0.00, 1013.7,   80.5, -999.0
04-12-2022, 00:43:36,     27,    0.2,    2.0,   0.00,   0.00, 1013.8,   80.9, -999.0
04-12-2022, 00:43:46,     37,    0.5,    1.9,   0.00,   0.00, 1013.8,   80.9, -999.0
04-12-2022, 00:43:57,     28,    0.3,    1.9,   0.00,   0.00, 1013.8,   80.9, -999.0
04-12-2022, 00:44:06,     15,    1.5,    1.9,   0.00,   0.00, 1013.8,   80.8, -999.0
04-12-2022, 00:44:16,     16,    0.6,    1.9,   0.00,   0.00, 1013.8,   80.7, -999.0
04-12-2022, 00:44:26,     15,    1.0,    1.9,   0.00,   0.00, 1013.8,   80.7, -999.0
04-12-2022, 00:44:36,     15,    0.3,    1.8,   0.00,   0.00, 1013.8,   80.6, -999.0
04-12-2022, 00:44:46,     15,    0.0,    1.8,   0.00,   0.00, 1013.7,   80.5, -999.0
04-12-2022, 00:44:56,     33,    0.5,    1.9,   0.00,   0.00, 1013.8,   80.8, -999.0
04-12-2022, 00:45:06,     34,    1.4,    1.9,   0.00,   0.00, 1013.8,   80.9, -999.0
04-12-2022, 00:45:16,     34,    0.6,    1.8,   0.00,   0.00, 1013.8,   80.8, -999.0
04-12-2022, 00:45:26,     34,    0.1,    1.8,   0.00,   0.00, 1013.7,   80.6, -999.0
04-12-2022, 00:45:36,     33,    0.4,    1.9,   0.00,   0.00, 1013.8,   80.7, -999.0
04-12-2022, 00:45:46,     33,    0.1,    1.8,   0.00,   0.00, 1013.7,   80.5, -999.0
04-12-2022, 00:45:56,     32,    0.6,    1.8,   0.00,   0.00, 1013.7,   80.7, -999.0
04-12-2022, 00:46:06,     22,    0.4,    1.9,   0.00,   0.00, 1013.7,   80.7, -999.0
04-12-2022, 00:46:16,     22,    0.1,    1.7,   0.00,   0.00, 1013.7,   80.5, -999.0
04-12-2022, 00:46:26,     26,    0.5,    1.8,   0.00,   0.00, 1013.7,   80.7, -999.0
04-12-2022, 00:46:36,     27,    0.4,    1.8,   0.00,   0.00, 1013.7,   80.8, -999.0
04-12-2022, 00:46:46,     27,    0.2,    1.7,   0.00,   0.00, 1013.7,   80.6, -999.0